• In Hungary
  • List of Countries
  • For 7 days
  • Water Temperature
  • Satellite Maps
  • Weather Map
  • News
  • Weather Widgets
  • user-avatar
    Login

    Hourly Weather Novoe Komino

    Today, 23 May, Wednesday

    Time Temperature Precipitation Wind Pressure Humidity
    00:00 +14°C° 0 mm 2 mps 761 mmHg 68%
    01:00 +13°C° 0 mm 2 mps 761 mmHg 68%
    02:00 +13°C° 0 mm 2 mps 761 mmHg 68%
    03:00 +13°C° 0 mm 2 mps 761 mmHg 68%
    04:00 +14°C° 0 mm 2 mps 761 mmHg 66%
    05:00 +15°C° 0 mm 2 mps 761 mmHg 64%
    06:00 +16°C° 0 mm 2 mps 761 mmHg 62%
    07:00 +18°C° 0 mm 2 mps 760 mmHg 59%
    08:00 +19°C° 0 mm 3 mps 760 mmHg 55%
    09:00 +21°C° 0 mm 3 mps 760 mmHg 53%
    10:00 +22°C° 0 mm 3 mps 760 mmHg 50%
    11:00 +23°C° 0 mm 4 mps 760 mmHg 48%
    12:00 +25°C° 0 mm 4 mps 759 mmHg 46%
    13:00 +26°C° 0 mm 5 mps 759 mmHg 45%
    14:00 +26°C° 0 mm 5 mps 758 mmHg 45%
    15:00 +26°C° 0 mm 5 mps 758 mmHg 45%
    16:00 +26°C° 0 mm 5 mps 757 mmHg 48%
    17:00 +25°C° 0 mm 4 mps 757 mmHg 52%
    18:00 +23°C° 0 mm 4 mps 756 mmHg 55%
    19:00 +22°C° 0.1 mm 4 mps 756 mmHg 61%
    20:00 +20°C° 0.1 mm 3 mps 756 mmHg 68%
    21:00 +18°C° 0.1 mm 3 mps 756 mmHg 74%
    22:00 +17°C° 0 mm 3 mps 755 mmHg 79%
    23:00 +16°C° 0 mm 3 mps 755 mmHg 84%

    Tomorrow, 24 May, Thursday

    Time Temperature Precipitation Wind Pressure Humidity
    00:00 +16°C° 0 mm 2 mps 755 mmHg 89%
    01:00 +15°C° 0 mm 2 mps 755 mmHg 91%
    02:00 +15°C° 0 mm 2 mps 755 mmHg 93%
    03:00 +14°C° 0 mm 2 mps 755 mmHg 96%
    04:00 +15°C° 0 mm 2 mps 755 mmHg 92%
    05:00 +16°C° 0 mm 2 mps 755 mmHg 89%
    06:00 +17°C° 0 mm 2 mps 755 mmHg 86%
    07:00 +18°C° 0 mm 2 mps 755 mmHg 79%
    08:00 +19°C° 0 mm 3 mps 755 mmHg 72%
    09:00 +20°C° 0 mm 3 mps 755 mmHg 66%
    10:00 +21°C° 0 mm 3 mps 754 mmHg 60%
    11:00 +22°C° 0 mm 3 mps 754 mmHg 55%
    12:00 +24°C° 0 mm 3 mps 754 mmHg 50%
    13:00 +24°C° 0 mm 3 mps 754 mmHg 50%
    14:00 +23°C° 0 mm 4 mps 754 mmHg 50%
    15:00 +23°C° 0 mm 4 mps 754 mmHg 49%
    16:00 +22°C° 0.4 mm 4 mps 754 mmHg 56%
    17:00 +21°C° 0.4 mm 4 mps 753 mmHg 62%
    18:00 +20°C° 0.4 mm 4 mps 753 mmHg 68%
    19:00 +18°C° 0 mm 3 mps 753 mmHg 72%
    20:00 +17°C° 0 mm 3 mps 754 mmHg 77%
    21:00 +14°C° 0 mm 3 mps 754 mmHg 81%
    22:00 +13°C° 0 mm 3 mps 754 mmHg 78%
    23:00 +12°C° 0 mm 3 mps 754 mmHg 74%

    Day after tomorrow, 25 May, Friday

    Time Temperature Precipitation Wind Pressure Humidity
    00:00 +11°C° 0 mm 3 mps 754 mmHg 70%
    01:00 +10°C° 0 mm 4 mps 754 mmHg 67%
    02:00 +8°C° 0 mm 4 mps 754 mmHg 63%
    03:00 +7°C° 0 mm 4 mps 754 mmHg 60%
    04:00 +8°C° 0 mm 4 mps 755 mmHg 59%
    05:00 +8°C° 0 mm 5 mps 755 mmHg 58%
    06:00 +8°C° 0 mm 5 mps 755 mmHg 58%
    07:00 +9°C° 0 mm 6 mps 755 mmHg 54%
    08:00 +10°C° 0 mm 6 mps 756 mmHg 50%
    09:00 +10°C° 0 mm 7 mps 756 mmHg 46%
    10:00 +11°C° 0 mm 7 mps 756 mmHg 44%
    11:00 +11°C° 0 mm 7 mps 756 mmHg 42%
    12:00 +11°C° 0 mm 7 mps 756 mmHg 40%
    13:00 +12°C° 0 mm 7 mps 757 mmHg 40%
    14:00 +12°C° 0 mm 7 mps 757 mmHg 40%
    15:00 +12°C° 0 mm 7 mps 757 mmHg 40%
    16:00 +11°C° 0 mm 6 mps 757 mmHg 42%
    17:00 +11°C° 0 mm 6 mps 758 mmHg 44%
    18:00 +10°C° 0 mm 5 mps 758 mmHg 46%
    19:00 +9°C° 0 mm 5 mps 759 mmHg 48%
    20:00 +8°C° 0 mm 4 mps 759 mmHg 51%
    21:00 +7°C° 0 mm 3 mps 760 mmHg 54%
    22:00 +7°C° 0 mm 3 mps 760 mmHg 54%
    23:00 +5°C° 0 mm 3 mps 761 mmHg 54%

    26 May, Saturday

    Time Temperature Precipitation Wind Pressure Humidity
    00:00 +4°C° 0 mm 3 mps 761 mmHg 54%
    01:00 +4°C° 0 mm 3 mps 761 mmHg 56%
    02:00 +3°C° 0 mm 3 mps 762 mmHg 58%
    03:00 +2°C° 0 mm 3 mps 762 mmHg 60%
    04:00 +3°C° 0 mm 3 mps 763 mmHg 57%
    05:00 +5°C° 0 mm 3 mps 763 mmHg 54%
    06:00 +7°C° 0 mm 3 mps 764 mmHg 51%
    07:00 +7°C° 0 mm 4 mps 764 mmHg 46%
    08:00 +10°C° 0 mm 4 mps 764 mmHg 42%
    09:00 +12°C° 0 mm 4 mps 764 mmHg 37%
    10:00 +13°C° 0 mm 4 mps 764 mmHg 36%
    11:00 +14°C° 0 mm 4 mps 764 mmHg 35%
    12:00 +15°C° 0 mm 4 mps 763 mmHg 33%
    13:00 +16°C° 0 mm 3 mps 763 mmHg 34%
    14:00 +17°C° 0 mm 3 mps 763 mmHg 34%
    15:00 +17°C° 0 mm 3 mps 762 mmHg 34%
    16:00 +17°C° 0 mm 3 mps 762 mmHg 37%
    17:00 +17°C° 0 mm 3 mps 762 mmHg 40%
    18:00 +17°C° 0 mm 2 mps 761 mmHg 44%
    19:00 +16°C° 0 mm 2 mps 761 mmHg 46%
    20:00 +14°C° 0 mm 2 mps 761 mmHg 47%
    21:00 +13°C° 0 mm 2 mps 761 mmHg 49%
    22:00 +13°C° 0 mm 2 mps 761 mmHg 51%
    23:00 +13°C° 0 mm 2 mps 760 mmHg 53%

    27 May, Sunday

    Time Temperature Precipitation Wind Pressure Humidity
    00:00 +12°C° 0 mm 3 mps 760 mmHg 55%
    01:00 +11°C° 0 mm 3 mps 759 mmHg 62%
    02:00 +12°C° 0 mm 2 mps 759 mmHg 69%
    03:00 +10°C° 0 mm 2 mps 759 mmHg 77%
    04:00 +12°C° 0 mm 2 mps 758 mmHg 76%
    05:00 +13°C° 0 mm 2 mps 758 mmHg 75%
    06:00 +15°C° 0 mm 2 mps 758 mmHg 75%
    07:00 +16°C° 0 mm 2 mps 758 mmHg 71%
    08:00 +17°C° 0 mm 3 mps 757 mmHg 68%
    09:00 +19°C° 0 mm 3 mps 757 mmHg 65%
    10:00 +21°C° 0 mm 4 mps 756 mmHg 57%
    11:00 +23°C° 0 mm 4 mps 756 mmHg 49%
    12:00 +26°C° 0 mm 5 mps 755 mmHg 41%
    13:00 +26°C° 0 mm 5 mps 755 mmHg 41%
    14:00 +26°C° 0 mm 5 mps 754 mmHg 41%
    15:00 +26°C° 0 mm 5 mps 753 mmHg 42%
    16:00 +23°C° 0 mm 4 mps 753 mmHg 47%
    17:00 +22°C° 0 mm 3 mps 752 mmHg 52%
    18:00 +21°C° 0 mm 3 mps 752 mmHg 57%
    19:00 +19°C° 0.3 mm 4 mps 752 mmHg 62%
    20:00 +17°C° 0.3 mm 5 mps 751 mmHg 67%
    21:00 +16°C° 0.3 mm 6 mps 751 mmHg 73%
    22:00 +14°C° 0.3 mm 5 mps 751 mmHg 79%
    23:00 +12°C° 0.3 mm 5 mps 751 mmHg 85%

    28 May, Monday

    Time Temperature Precipitation Wind Pressure Humidity
    00:00 +10°C° 0.3 mm 5 mps 752 mmHg 91%
    01:00 +9°C° 0 mm 5 mps 752 mmHg 91%
    02:00 +9°C° 0 mm 5 mps 752 mmHg 91%
    03:00 +8°C° 0 mm 4 mps 752 mmHg 91%
    04:00 +8°C° 0 mm 5 mps 752 mmHg 90%
    05:00 +9°C° 0 mm 5 mps 752 mmHg 88%
    06:00 +9°C° 0 mm 5 mps 752 mmHg 87%
    07:00 +10°C° 0 mm 5 mps 752 mmHg 79%
    08:00 +10°C° 0 mm 6 mps 752 mmHg 72%
    09:00 +11°C° 0 mm 6 mps 752 mmHg 64%
    10:00 +13°C° 0 mm 6 mps 752 mmHg 55%
    11:00 +14°C° 0 mm 7 mps 752 mmHg 46%
    12:00 +15°C° 0 mm 7 mps 752 mmHg 37%
    13:00 +14°C° 0 mm 7 mps 751 mmHg 39%
    14:00 +14°C° 0 mm 7 mps 751 mmHg 41%
    15:00 +14°C° 0 mm 7 mps 751 mmHg 43%
    16:00 +13°C° 0.2 mm 6 mps 751 mmHg 50%
    17:00 +12°C° 0.2 mm 5 mps 750 mmHg 56%
    18:00 +12°C° 0.2 mm 4 mps 750 mmHg 63%
    19:00 +10°C° 0.1 mm 4 mps 750 mmHg 65%
    20:00 +8°C° 0.1 mm 4 mps 750 mmHg 66%
    21:00 +8°C° 0.1 mm 3 mps 750 mmHg 68%
    22:00 +7°C° 0 mm 3 mps 750 mmHg 66%
    23:00 +5°C° 0 mm 4 mps 751 mmHg 65%
    Show more